Location: Cheyres
(46.8153°N, 6.7877°E)
Time: 00:34:53
(UTC+00:00)

Tiros 1 - Pass Details

Date: 03 June 2022
Orbit: 629 x 663 km, 48.4° (Epoch: 05 July)

Event Time Altitude Azimuth Distance (km) Brightness Sun altitude
Rises 00:52:00 0° 280° (W) 2,917 10.4 -18.5°
Reaches altitude 10° 00:54:19 10° 282° (WNW) 2,011 9.6 -18.4°
Maximum altitude 00:58:57 78° 9° (N) 651 7.2 -18.1°
Drops below altitude 10° 01:03:37 10° 96° (E) 2,023 9.9 -17.8°
Sets 01:05:57 0° 98° (E) 2,937 10.7 -17.6°
